Weather History for Jonesboro, AR

Change the Weather History Date:

Saturday, March 15, 2014

  Actual Average Record
Temperature  
Mean Temperature 53 °F 50 °F  
Max Temperature 68 °F 60 °F 85 °F (1921)
Min Temperature 38 °F 40 °F 21 °F (1988)
Degree Days  
Heating Degree Days 12 15  
Month to date heating degree days 354 261  
Since 1 July heating degree days 3619 3217  
Cooling Degree Days 0 0  
Month to date cooling degree days 0 0  
Year to date cooling degree days 0 0  
Growing Degree Days 2 (Base 50)    
Moisture  
Dew Point 45 °F    
Average Humidity 76    
Maximum Humidity 100    
Minimum Humidity 52    
Precipitation  
Precipitation 0.48 in 0.15 in 1.49 in (1923)
Month to date precipitation 2.05 2.02  
Year to date precipitation 6.76 9.17  
Snow  
Snow 0.00 in 0.00 in 4.00 in (1960)
Month to date snowfall 3.2 0.4  
Since 1 July snowfall 5.2 4.5  
Snow Depth 0.00 in    
Sea Level Pressure  
Sea Level Pressure 29.99 in    
Wind  
Wind Speed 5 mph (SSE)    
Max Wind Speed 16 mph    
Max Gust Speed 18 mph    
Visibility 8 miles    
Events Rain    
T = Trace of Precipitation, MM = Missing Value Source: NWS Daily Summary

Daily Weather History Graph

Daily Weather History Graph

Search for Another Location

Airport:

Trip Planner

Search our weather history database for the weather conditions in past years. The results will help you decide how hot, cold, wet, or windy it might be!

Date:

Astronomy

Mar. 15, 2014 Rise Set
Actual Time 7:13 AM CDT 7:10 PM CDT
Civil Twilight 6:47 AM CDT 7:35 PM CDT
Nautical Twilight 6:18 AM CDT 8:05 PM CDT
Astronomical Twilight 5:48 AM CDT 8:35 PM CDT
Moon 6:29 PM CDT (3/15) 6:24 AM CDT (3/15)
Length of Visible Light 12h 47m
Length of Day
11h 56m
Waxing Gibbous, 99% of the Moon is Illuminated
Mar 15
Waxing Gibbous
Mar 16
Full
Mar 23
Last Quarter
Mar 30
New
Apr 7
First Quarter

Hourly Weather History & Observations

Time (CDT) Temp. Windchill Dew Point Humidity Pressure Visibility Wind Dir Wind Speed Gust Speed Precip Events Conditions
12:53 AM 48.0 °F - 41.0 °F 77% 30.03 in 10.0 mi SW 4.6 mph - N/A   Clear
1:53 AM 50.0 °F - 42.1 °F 74% 30.04 in 10.0 mi WSW 5.8 mph - N/A   Clear
2:53 AM 48.9 °F - 42.1 °F 77% 30.04 in 10.0 mi WSW 5.8 mph - N/A   Clear
3:53 AM 46.0 °F 44.8 °F 41.0 °F 83% 30.03 in 10.0 mi West 3.5 mph - N/A   Clear
4:53 AM 41.0 °F - 37.9 °F 89% 30.03 in 10.0 mi Calm Calm - N/A   Clear
5:53 AM 39.9 °F - 39.0 °F 97% 30.04 in 10.0 mi Calm Calm - N/A   Clear
6:48 AM 39.2 °F - 37.4 °F 93% 30.05 in 1.8 mi Calm Calm - N/A   Clear
6:53 AM 39.0 °F - 37.0 °F 93% 30.05 in 1.5 mi Calm Calm - N/A   Clear
7:05 AM 39.2 °F - 37.4 °F 93% 30.05 in 3.0 mi Calm Calm - N/A   Clear
7:27 AM 37.4 °F - 37.4 °F 100% 30.05 in 1.8 mi Calm Calm - N/A   Clear
7:36 AM 37.4 °F - 35.6 °F 93% 30.05 in 3.0 mi Calm Calm - N/A   Clear
7:53 AM 39.9 °F - 37.0 °F 89% 30.05 in 5.0 mi Calm Calm - N/A   Clear
8:53 AM 48.0 °F - 44.1 °F 86% 30.06 in 10.0 mi ENE 3.5 mph - N/A   Clear
9:53 AM 50.0 °F - 45.0 °F 83% 30.07 in 10.0 mi Calm Calm - N/A   Clear
10:53 AM 55.9 °F - 46.9 °F 72% 30.06 in 10.0 mi ESE 5.8 mph - N/A   Clear
11:53 AM 60.1 °F - 48.0 °F 64% 30.05 in 10.0 mi ESE 9.2 mph - N/A   Clear
12:53 PM 63.0 °F - 48.0 °F 58% 30.03 in 10.0 mi ESE 6.9 mph - N/A   Clear
1:53 PM 64.9 °F - 48.9 °F 56% 29.99 in 10.0 mi SSE 9.2 mph - N/A   Clear
2:53 PM 66.9 °F - 48.0 °F 51% 29.97 in 10.0 mi South 10.4 mph 18.4 mph N/A   Partly Cloudy
3:53 PM 66.9 °F - 48.9 °F 52% 29.94 in 10.0 mi SSE 10.4 mph - N/A   Scattered Clouds
4:53 PM 66.0 °F - 50.0 °F 56% 29.92 in 10.0 mi SSE 12.7 mph - N/A   Partly Cloudy
5:53 PM 64.0 °F - 50.0 °F 60% 29.91 in 10.0 mi South 10.4 mph - N/A   Mostly Cloudy
6:53 PM 62.1 °F - 50.0 °F 65% 29.91 in 10.0 mi SSE 6.9 mph - N/A   Overcast
7:53 PM 61.0 °F - 51.1 °F 70% 29.90 in 10.0 mi SE 4.6 mph - N/A   Overcast
8:53 PM 57.9 °F - 53.1 °F 84% 29.90 in 8.0 mi Calm Calm - 0.06 in Rain Light Rain
9:53 PM 57.0 °F - 54.0 °F 89% 29.88 in 8.0 mi ESE 4.6 mph - 0.03 in Rain Light Rain
10:53 PM 55.9 °F - 53.1 °F 90% 29.88 in 6.0 mi ESE 4.6 mph - 0.07 in Rain Light Rain
11:53 PM 57.0 °F - 53.1 °F 87% 29.87 in 4.0 mi ESE 3.5 mph - 0.24 in Rain Rain